| time (UTC) | temp C | wind direction | speed KPH | gust KPH | rain 1hr cm | rain 24hr cm | rain mn cm | humidity % | barometer mb |
| 20260503023410 | 16 | 186 | 8.0 | 11.3 | 0.00 | 0.00 | 0.00 | 39 | 1010.4 |
| 20260503022908 | 16 | 224 | 3.2 | 11.3 | 0.00 | 0.00 | 0.00 | 40 | 1010.2 |
| 20260503022402 | 16 | 243 | 0.0 | 1.6 | 0.00 | 0.00 | 0.00 | 41 | 1010.4 |
| 20260503021858 | 16 | 217 | 1.6 | 4.8 | 0.00 | 0.00 | 0.00 | 41 | 1010.5 |
| 20260503021354 | 16 | 226 | 3.2 | 3.2 | 0.00 | 0.00 | 0.00 | 40 | 1010.4 |
| 20260503020851 | 16 | 225 | 3.2 | 3.2 | 0.00 | 0.00 | 0.00 | 40 | 1010.5 |
| 20260503020350 | 16 | 264 | 1.6 | 3.2 | 0.00 | 0.00 | 0.00 | 40 | 1010.5 |
| 20260503015845 | 16 | 224 | 1.6 | 3.2 | 0.00 | 0.00 | 0.00 | 40 | 1010.4 |
| 20260503015337 | 16 | 194 | 3.2 | 8.0 | 0.00 | 0.00 | 0.00 | 39 | 1010.5 |
| 20260503014833 | 16 | 204 | 4.8 | 8.0 | 0.00 | 0.00 | 0.00 | 39 | 1010.4 |
| 20260503014331 | 16 | 237 | 4.8 | 8.0 | 0.00 | 0.00 | 0.00 | 39 | 1010.6 |
| 20260503013828 | 17 | 237 | 1.6 | 11.3 | 0.00 | 0.00 | 0.00 | 37 | 1010.5 |
| 20260503013325 | 16 | 247 | 3.2 | 4.8 | 0.00 | 0.00 | 0.00 | 39 | 1010.7 |
| 20260503012822 | 16 | 254 | 3.2 | 3.2 | 0.00 | 0.00 | 0.00 | 39 | 1010.5 |
| 20260503012320 | 17 | 222 | 3.2 | 4.8 | 0.00 | 0.00 | 0.00 | 38 | 1010.4 |
| 20260503011816 | 17 | 203 | 4.8 | 11.3 | 0.00 | 0.00 | 0.00 | 38 | 1010.6 |
| 20260503011313 | 17 | 205 | 6.4 | 9.7 | 0.00 | 0.00 | 0.00 | 37 | 1010.4 |
| 20260503010809 | 17 | 227 | 3.2 | 4.8 | 0.00 | 0.00 | 0.00 | 37 | 1010.8 |
| 20260503010307 | 17 | 242 | 4.8 | 4.8 | 0.00 | 0.00 | 0.00 | 37 | 1010.6 |
| 20260503005804 | 17 | 257 | 6.4 | 9.7 | 0.00 | 0.00 | 0.00 | 36 | 1010.6 |
| 20260503005304 | 17 | 258 | 4.8 | 8.0 | 0.00 | 0.00 | 0.00 | 37 | 1010.5 |
| 20260503004757 | 17 | 287 | 4.8 | 4.8 | 0.00 | 0.00 | 0.00 | 36 | 1010.7 |
| 20260503004255 | 17 | 240 | 4.8 | 4.8 | 0.00 | 0.00 | 0.00 | 35 | 1010.7 |
| 20260503003752 | 17 | 238 | 1.6 | 3.2 | 0.00 | 0.00 | 0.00 | 35 | 1010.5 |
| 20260503003249 | 17 | 216 | 4.8 | 8.0 | 0.00 | 0.00 | 0.00 | 35 | 1010.5 |
| 20260503002746 | 17 | 254 | 3.2 | 9.7 | 0.00 | 0.00 | 0.00 | 35 | 1010.4 |
| 20260503002243 | 17 | 226 | 6.4 | 9.7 | 0.00 | 0.00 | 0.00 | 33 | 1010.6 |
| 20260503001739 | 17 | 227 | 4.8 | 9.7 | 0.00 | 0.00 | 0.00 | 33 | 1010.4 |
| 20260503001235 | 17 | 218 | 1.6 | 3.2 | 0.00 | 0.00 | 0.00 | 33 | 1010.4 |
| 20260503000734 | 17 | 240 | 0.0 | 3.2 | 0.00 | 0.00 | 0.00 | 34 | 1010.4 |
| 20260503000233 | 17 | 235 | 1.6 | 4.8 | 0.00 | 0.00 | 0.00 | 33 | 1010.4 |
| 20260502235727 | 18 | 185 | 6.4 | 9.7 | 0.00 | 0.00 | 0.00 | 33 | 1010.5 |
| 20260502235226 | 17 | 250 | 3.2 | 4.8 | 0.00 | 0.00 | 0.00 | 33 | 1010.7 |
| 20260502234721 | 17 | 199 | 3.2 | 8.0 | 0.00 | 0.00 | 0.00 | 33 | 1010.6 |
| 20260502234219 | 17 | 192 | 3.2 | 8.0 | 0.00 | 0.00 | 0.00 | 32 | 1010.4 |
| 20260502233714 | 17 | 193 | 3.2 | 3.2 | 0.00 | 0.00 | 0.00 | 33 | 1010.6 |
| 20260502233211 | 17 | 182 | 1.6 | 3.2 | 0.00 | 0.00 | 0.00 | 33 | 1010.7 |
| 20260502232707 | 18 | 210 | 1.6 | 3.2 | 0.00 | 0.00 | 0.00 | 32 | 1010.9 |
| 20260502232205 | 17 | 300 | 1.6 | 3.2 | 0.00 | 0.00 | 0.00 | 32 | 1010.7 |
| 20260502231701 | 17 | 248 | 4.8 | 4.8 | 0.00 | 0.00 | 0.00 | 33 | 1011.1 |
| 20260502231159 | 17 | 257 | 1.6 | 3.2 | 0.00 | 0.00 | 0.00 | 32 | 1011.3 |
| 20260502230658 | 17 | 203 | 4.8 | 9.7 | 0.00 | 0.00 | 0.00 | 31 | 1011.2 |
| 20260502230156 | 17 | 240 | 4.8 | 8.0 | 0.00 | 0.00 | 0.00 | 32 | 1011.0 |
| 20260502225651 | 17 | 249 | 3.2 | 4.8 | 0.00 | 0.00 | 0.00 | 32 | 1011.0 |
| 20260502225149 | 17 | 233 | 4.8 | 4.8 | 0.00 | 0.00 | 0.00 | 32 | 1011.1 |
| 20260502224644 | 17 | 236 | 3.2 | 11.3 | 0.00 | 0.00 | 0.00 | 31 | 1011.2 |
| 20260502224141 | 18 | 215 | 3.2 | 8.0 | 0.00 | 0.00 | 0.00 | 32 | 1011.2 |
| 20260502223639 | 18 | 214 | 4.8 | 12.9 | 0.00 | 0.00 | 0.00 | 31 | 1011.2 |
| 20260502223137 | 18 | 265 | 8.0 | 12.9 | 0.00 | 0.00 | 0.00 | 30 | 1011.3 |
| 20260502222634 | 18 | 193 | 6.4 | 12.9 | 0.00 | 0.00 | 0.00 | 30 | 1011.4 |
| 20260502222131 | 18 | 234 | 4.8 | 8.0 | 0.00 | 0.00 | 0.00 | 30 | 1011.3 |
| 20260502221626 | 18 | 268 | 6.4 | 11.3 | 0.00 | 0.00 | 0.00 | 29 | 1011.5 |
| 20260502221124 | 18 | 230 | 8.0 | 9.7 | 0.00 | 0.00 | 0.00 | 31 | 1011.6 |
| 20260502220620 | 18 | 234 | 4.8 | 11.3 | 0.00 | 0.00 | 0.00 | 30 | 1011.6 |
| 20260502220116 | 18 | 173 | 4.8 | 11.3 | 0.00 | 0.00 | 0.00 | 30 | 1011.5 |
| 20260502215614 | 18 | 241 | 3.2 | 9.7 | 0.00 | 0.00 | 0.00 | 31 | 1011.6 |
| 20260502215110 | 18 | 232 | 9.7 | 12.9 | 0.00 | 0.00 | 0.00 | 30 | 1011.8 |
| 20260502214607 | 18 | 237 | 4.8 | 8.0 | 0.00 | 0.00 | 0.00 | 30 | 1011.9 |
| 20260502214105 | 17 | 284 | 3.2 | 8.0 | 0.00 | 0.00 | 0.00 | 30 | 1012.0 |
| 20260502213602 | 18 | 227 | 6.4 | 12.9 | 0.00 | 0.00 | 0.00 | 30 | 1012.0 |
| 20260502213059 | 17 | 284 | 8.0 | 9.7 | 0.00 | 0.00 | 0.00 | 30 | 1012.0 |
| 20260502212558 | 17 | 256 | 4.8 | 11.3 | 0.00 | 0.00 | 0.00 | 30 | 1012.1 |
| 20260502212055 | 19 | 207 | 8.0 | 14.5 | 0.00 | 0.00 | 0.00 | 30 | 1012.0 |
| 20260502211550 | 18 | 265 | 1.6 | 8.0 | 0.00 | 0.00 | 0.00 | 31 | 1012.4 |
| 20260502211048 | 18 | 233 | 11.3 | 12.9 | 0.00 | 0.00 | 0.00 | 30 | 1012.3 |
| 20260502210545 | 18 | 246 | 4.8 | 8.0 | 0.00 | 0.00 | 0.00 | 29 | 1012.4 |
| 20260502210042 | 18 | 319 | 6.4 | 11.3 | 0.00 | 0.00 | 0.00 | 30 | 1012.6 |
| 20260502205538 | 18 | 193 | 6.4 | 8.0 | 0.00 | 0.00 | 0.00 | 30 | 1012.6 |
| 20260502205036 | 18 | 229 | 4.8 | 14.5 | 0.00 | 0.00 | 0.00 | 30 | 1012.9 |
| 20260502204532 | 17 | 216 | 6.4 | 11.3 | 0.00 | 0.00 | 0.00 | 30 | 1012.9 |
| 20260502204030 | 17 | 256 | 4.8 | 14.5 | 0.00 | 0.00 | 0.00 | 31 | 1013.0 |
| 20260502203527 | 18 | 146 | 6.4 | 11.3 | 0.00 | 0.00 | 0.00 | 31 | 1013.3 |
| 20260502203024 | 17 | 262 | 1.6 | 11.3 | 0.00 | 0.00 | 0.00 | 30 | 1013.1 |
| 20260502202520 | 17 | 302 | 4.8 | 11.3 | 0.00 | 0.00 | 0.00 | 29 | 1013.3 |
| 20260502202019 | 17 | 249 | 4.8 | 12.9 | 0.00 | 0.00 | 0.00 | 30 | 1013.6 |
| 20260502201514 | 17 | 264 | 4.8 | 9.7 | 0.00 | 0.00 | 0.00 | 30 | 1013.6 |
| 20260502201010 | 17 | 277 | 4.8 | 4.8 | 0.00 | 0.00 | 0.00 | 30 | 1013.8 |
| 20260502200507 | 17 | 240 | 8.0 | 11.3 | 0.00 | 0.00 | 0.00 | 31 | 1013.9 |
| 20260502200005 | 17 | 193 | 12.9 | 16.1 | 0.00 | 0.00 | 0.00 | 29 | 1013.9 |
| 20260502195502 | 17 | 283 | 6.4 | 9.7 | 0.00 | 0.00 | 0.00 | 31 | 1013.8 |
| 20260502194958 | 16 | 274 | 8.0 | 17.7 | 0.00 | 0.00 | 0.00 | 30 | 1014.1 |
| 20260502194455 | 17 | 262 | 4.8 | 11.3 | 0.00 | 0.00 | 0.00 | 30 | 1013.8 |
| 20260502193950 | 17 | 206 | 9.7 | 14.5 | 0.00 | 0.00 | 0.00 | 31 | 1013.9 |
| 20260502193448 | 17 | 259 | 6.4 | 11.3 | 0.00 | 0.00 | 0.00 | 30 | 1014.4 |
| 20260502192944 | 16 | 237 | 3.2 | 14.5 | 0.00 | 0.00 | 0.00 | 30 | 1014.4 |
| 20260502192441 | 16 | 240 | 6.4 | 11.3 | 0.00 | 0.00 | 0.00 | 31 | 1014.5 |
| 20260502191937 | 16 | 248 | 6.4 | 9.7 | 0.00 | 0.00 | 0.00 | 31 | 1014.5 |
| 20260502191435 | 16 | 236 | 4.8 | 9.7 | 0.00 | 0.00 | 0.00 | 32 | 1014.5 |
| 20260502190933 | 16 | 246 | 6.4 | 11.3 | 0.00 | 0.00 | 0.00 | 32 | 1014.7 |
| 20260502190430 | 15 | 224 | 3.2 | 3.2 | 0.00 | 0.00 | 0.00 | 32 | 1014.7 |
| 20260502185926 | 16 | 250 | 9.7 | 12.9 | 0.00 | 0.00 | 0.00 | 31 | 1015.0 |
| 20260502185421 | 16 | 207 | 4.8 | 8.0 | 0.00 | 0.00 | 0.00 | 33 | 1014.9 |
| 20260502184919 | 15 | 212 | 4.8 | 9.7 | 0.00 | 0.00 | 0.00 | 33 | 1015.0 |
| 20260502184414 | 15 | 196 | 9.7 | 11.3 | 0.00 | 0.00 | 0.00 | 34 | 1015.1 |
| 20260502183911 | 15 | 277 | 4.8 | 8.0 | 0.00 | 0.00 | 0.00 | 32 | 1015.2 |
| 20260502183407 | 15 | 218 | 3.2 | 11.3 | 0.00 | 0.00 | 0.00 | 32 | 1015.5 |
| 20260502182903 | 15 | 219 | 4.8 | 12.9 | 0.00 | 0.00 | 0.00 | 32 | 1015.4 |
| 20260502182358 | 15 | 248 | 4.8 | 9.7 | 0.00 | 0.00 | 0.00 | 32 | 1015.2 |
| 20260502181855 | 15 | 220 | 6.4 | 12.9 | 0.00 | 0.00 | 0.00 | 33 | 1015.4 |
| 20260502181353 | 15 | 246 | 3.2 | 3.2 | 0.00 | 0.00 | 0.00 | 32 | 1015.7 |
| 20260502180851 | 14 | 214 | 1.6 | 3.2 | 0.00 | 0.00 | 0.00 | 34 | 1015.8 |
| 20260502180348 | 15 | 181 | 4.8 | 8.0 | 0.00 | 0.00 | 0.00 | 34 | 1015.8 |
| 20260502170306 | 13 | 319 | 8.0 | 17.7 | 0.00 | 0.00 | 0.00 | 35 | 1016.7 |
| 20260502164255 | 13 | 293 | 3.2 | 4.8 | 0.00 | 0.00 | 0.00 | 34 | 1016.9 |
| 20260502163750 | 13 | 296 | 6.4 | 14.5 | 0.00 | 0.00 | 0.00 | 35 | 1017.0 |
| 20260502163247 | 13 | 264 | 3.2 | 8.0 | 0.00 | 0.00 | 0.00 | 35 | 1017.1 |
| 20260502162744 | 13 | 253 | 3.2 | 9.7 | 0.00 | 0.00 | 0.00 | 34 | 1017.0 |
| 20260502162240 | 13 | 195 | 6.4 | 9.7 | 0.00 | 0.00 | 0.00 | 36 | 1017.2 |
| 20260502161737 | 13 | 250 | 1.6 | 9.7 | 0.00 | 0.00 | 0.00 | 36 | 1017.2 |
| 20260502161234 | 12 | 242 | 8.0 | 9.7 | 0.00 | 0.00 | 0.00 | 36 | 1017.2 |
| 20260502160732 | 13 | 216 | 8.0 | 12.9 | 0.00 | 0.00 | 0.00 | 35 | 1017.2 |
| 20260502160231 | 12 | 239 | 3.2 | 8.0 | 0.00 | 0.00 | 0.00 | 37 | 1017.5 |
| 20260502152155 | 12 | 317 | 8.0 | 11.3 | 0.00 | 0.00 | 0.00 | 38 | 1017.8 |
| 20260502151652 | 12 | 298 | 8.0 | 9.7 | 0.00 | 0.00 | 0.00 | 38 | 1017.6 |
| 20260502151149 | 12 | 293 | 3.2 | 4.8 | 0.00 | 0.00 | 0.00 | 39 | 1017.8 |
| 20260502150647 | 11 | 246 | 3.2 | 4.8 | 0.00 | 0.00 | 0.00 | 39 | 1017.8 |
| 20260502150143 | 12 | 276 | 6.4 | 12.9 | 0.00 | 0.00 | 0.00 | 39 | 1017.7 |
| 20260502140107 | 10 | 284 | 3.2 | 9.7 | 0.00 | 0.00 | 0.00 | 45 | 1018.3 |
| 20260502130532 | 6 | 239 | 1.6 | 1.6 | 0.00 | 0.00 | 0.00 | 63 | 1018.3 |
| 20260502123515 | 4 | 214 | 1.6 | 1.6 | 0.00 | 0.00 | 0.00 | 66 | 1018.4 |
| 20260502123011 | 4 | 215 | 1.6 | 1.6 | 0.00 | 0.00 | 0.00 | 66 | 1018.4 |
| 20260502122508 | 3 | 215 | 0.0 | 1.6 | 0.00 | 0.00 | 0.00 | 67 | 1018.4 |
| 20260502122006 | 3 | 215 | 0.0 | 0.0 | 0.00 | 0.00 | 0.00 | 69 | 1018.3 |
| 20260502121503 | 3 | 216 | 0.0 | 0.0 | 0.00 | 0.00 | 0.00 | 70 | 1018.2 |
| 20260502121000 | 2 | 215 | 0.0 | 1.6 | 0.00 | 0.00 | 0.00 | 70 | 1018.1 |
| 20260502120456 | 2 | 216 | 0.0 | 0.0 | 0.00 | 0.00 | 0.00 | 71 | 1018.1 |
| 20260502115450 | 2 | 216 | 0.0 | 0.0 | 0.00 | 0.00 | 0.00 | 75 | 1018.2 |
| 20260502114946 | 2 | 216 | 0.0 | 0.0 | 0.00 | 0.00 | 0.00 | 76 | 1018.2 |
| 20260502114443 | 1 | 215 | 0.0 | 0.0 | 0.00 | 0.00 | 0.00 | 76 | 1018.1 |
| 20260502113941 | 1 | 215 | 1.6 | 1.6 | 0.00 | 0.00 | 0.00 | 77 | 1018.0 |
| 20260502113438 | 1 | 215 | 0.0 | 1.6 | 0.00 | 0.00 | 0.00 | 77 | 1018.1 |
| 20260502112937 | 1 | 215 | 1.6 | 1.6 | 0.00 | 0.00 | 0.00 | 78 | 1018.1 |
| 20260502112434 | 0 | 214 | 1.6 | 3.2 | 0.00 | 0.00 | 0.00 | 78 | 1017.9 |
| 20260502111931 | 0 | 216 | 0.0 | 1.6 | 0.00 | 0.00 | 0.00 | 77 | 1017.9 |
| 20260502111428 | 0 | 216 | 1.6 | 1.6 | 0.00 | 0.00 | 0.00 | 79 | 1018.1 |
| 20260502110926 | 0 | 216 | 1.6 | 1.6 | 0.00 | 0.00 | 0.00 | 80 | 1017.9 |
| 20260502110423 | 0 | 216 | 0.0 | 1.6 | 0.00 | 0.00 | 0.00 | 81 | 1018.0 |
| 20260502105920 | 0 | 216 | 0.0 | 0.0 | 0.00 | 0.00 | 0.00 | 80 | 1018.0 |
| 20260502105417 | 0 | 216 | 0.0 | 1.6 | 0.00 | 0.00 | 0.00 | 80 | 1018.0 |
| 20260502104916 | 0 | 216 | 0.0 | 0.0 | 0.00 | 0.00 | 0.00 | 80 | 1018.0 |
| 20260502104412 | 0 | 216 | 0.0 | 0.0 | 0.00 | 0.00 | 0.00 | 80 | 1018.1 |
| 20260502103909 | 0 | 216 | 0.0 | 0.0 | 0.00 | 0.00 | 0.00 | 80 | 1017.8 |
| 20260502103408 | 0 | 216 | 0.0 | 0.0 | 0.00 | 0.00 | 0.00 | 80 | 1017.9 |
| 20260502102904 | 0 | 216 | 0.0 | 0.0 | 0.00 | 0.00 | 0.00 | 80 | 1018.0 |
| 20260502102400 | 0 | 216 | 0.0 | 0.0 | 0.00 | 0.00 | 0.00 | 79 | 1018.0 |
| 20260502101858 | 0 | 216 | 0.0 | 0.0 | 0.00 | 0.00 | 0.00 | 79 | 1017.8 |
| 20260502101356 | 0 | 216 | 0.0 | 0.0 | 0.00 | 0.00 | 0.00 | 79 | 1017.9 |
| 20260502100854 | 0 | 216 | 0.0 | 0.0 | 0.00 | 0.00 | 0.00 | 78 | 1018.1 |
| 20260502100353 | 0 | 216 | 0.0 | 0.0 | 0.00 | 0.00 | 0.00 | 78 | 1017.9 |
| 20260502091327 | 1 | 215 | 0.0 | 1.6 | 0.00 | 0.00 | 0.00 | 78 | 1017.9 |
| 20260502090825 | 1 | 215 | 0.0 | 0.0 | 0.00 | 0.00 | 0.00 | 78 | 1017.9 |
| 20260502090321 | 1 | 215 | 0.0 | 0.0 | 0.00 | 0.00 | 0.00 | 79 | 1017.9 |
| 20260502071216 | 2 | 216 | 0.0 | 0.0 | 0.00 | 0.00 | 0.00 | 73 | 1018.1 |
| 20260502070715 | 2 | 216 | 0.0 | 0.0 | 0.00 | 0.00 | 0.00 | 73 | 1018.2 |
| 20260502070212 | 2 | 216 | 0.0 | 1.6 | 0.00 | 0.00 | 0.00 | 72 | 1018.1 |
| 20260502065710 | 2 | 216 | 0.0 | 1.6 | 0.00 | 0.00 | 0.00 | 72 | 1018.1 |
| 20260502065208 | 2 | 216 | 0.0 | 1.6 | 0.00 | 0.00 | 0.00 | 72 | 1018.2 |
| 20260502064706 | 2 | 216 | 0.0 | 0.0 | 0.00 | 0.00 | 0.00 | 72 | 1018.2 |
| 20260502064157 | 2 | 216 | 0.0 | 0.0 | 0.00 | 0.00 | 0.00 | 72 | 1018.3 |
| 20260502063655 | 2 | 216 | 0.0 | 0.0 | 0.00 | 0.00 | 0.00 | 72 | 1018.3 |
| 20260502063153 | 2 | 216 | 0.0 | 0.0 | 0.00 | 0.00 | 0.00 | 72 | 1018.4 |
| 20260502062649 | 2 | 216 | 0.0 | 0.0 | 0.00 | 0.00 | 0.00 | 72 | 1018.4 |
| 20260502062147 | 2 | 216 | 0.0 | 1.6 | 0.00 | 0.00 | 0.00 | 72 | 1018.3 |
| 20260502061645 | 2 | 216 | 0.0 | 1.6 | 0.00 | 0.00 | 0.00 | 71 | 1018.2 |
| 20260502061142 | 2 | 216 | 0.0 | 0.0 | 0.00 | 0.00 | 0.00 | 71 | 1018.3 |
| 20260502060637 | 2 | 216 | 0.0 | 0.0 | 0.00 | 0.00 | 0.00 | 70 | 1018.3 |
| 20260502060133 | 3 | 216 | 0.0 | 1.6 | 0.00 | 0.00 | 0.00 | 69 | 1018.4 |
| 20260502055631 | 3 | 216 | 0.0 | 1.6 | 0.00 | 0.00 | 0.00 | 68 | 1018.3 |
| 20260502055129 | 3 | 216 | 0.0 | 1.6 | 0.00 | 0.00 | 0.00 | 67 | 1018.4 |
| 20260502054628 | 3 | 216 | 1.6 | 1.6 | 0.00 | 0.00 | 0.00 | 67 | 1018.4 |
| 20260502054125 | 3 | 216 | 0.0 | 0.0 | 0.00 | 0.00 | 0.00 | 68 | 1018.3 |
| 20260502053622 | 3 | 216 | 1.6 | 1.6 | 0.00 | 0.00 | 0.00 | 67 | 1018.3 |
| 20260502053119 | 3 | 216 | 0.0 | 1.6 | 0.00 | 0.00 | 0.00 | 67 | 1018.3 |
| 20260502052618 | 3 | 216 | 0.0 | 0.0 | 0.00 | 0.00 | 0.00 | 67 | 1018.4 |
| 20260502052115 | 3 | 216 | 0.0 | 0.0 | 0.00 | 0.00 | 0.00 | 65 | 1018.4 |
| 20260502051613 | 3 | 215 | 1.6 | 1.6 | 0.00 | 0.00 | 0.00 | 65 | 1018.4 |
| 20260502051111 | 3 | 219 | 0.0 | 1.6 | 0.00 | 0.00 | 0.00 | 66 | 1018.2 |
| 20260502050607 | 3 | 218 | 1.6 | 1.6 | 0.00 | 0.00 | 0.00 | 65 | 1018.4 |
| 20260502050104 | 3 | 243 | 1.6 | 1.6 | 0.00 | 0.00 | 0.00 | 65 | 1018.2 |
| 20260502045600 | 3 | 243 | 1.6 | 1.6 | 0.00 | 0.00 | 0.00 | 66 | 1018.3 |
| 20260502045058 | 4 | 243 | 1.6 | 1.6 | 0.00 | 0.00 | 0.00 | 64 | 1018.3 |
| 20260502044554 | 4 | 244 | 1.6 | 3.2 | 0.00 | 0.00 | 0.00 | 63 | 1018.1 |
| 20260502044051 | 4 | 251 | 1.6 | 3.2 | 0.00 | 0.00 | 0.00 | 64 | 1018.1 |
| 20260502043548 | 4 | 251 | 1.6 | 3.2 | 0.00 | 0.00 | 0.00 | 64 | 1018.3 |
| 20260502043044 | 5 | 252 | 1.6 | 1.6 | 0.00 | 0.00 | 0.00 | 62 | 1018.3 |
| 20260502042539 | 4 | 268 | 1.6 | 1.6 | 0.00 | 0.00 | 0.00 | 63 | 1018.3 |
| 20260502042037 | 5 | 268 | 1.6 | 1.6 | 0.00 | 0.00 | 0.00 | 64 | 1018.2 |
| 20260502041535 | 5 | 268 | 1.6 | 1.6 | 0.00 | 0.00 | 0.00 | 62 | 1018.1 |
| 20260502041032 | 5 | 269 | 1.6 | 1.6 | 0.00 | 0.00 | 0.00 | 62 | 1018.1 |
| 20260502040528 | 5 | 269 | 1.6 | 1.6 | 0.00 | 0.00 | 0.00 | 62 | 1018.2 |
| 20260502040025 | 5 | 269 | 0.0 | 1.6 | 0.00 | 0.00 | 0.00 | 61 | 1018.3 |
| 20260502035521 | 5 | 269 | 0.0 | 1.6 | 0.00 | 0.00 | 0.00 | 61 | 1018.4 |
| 20260502035019 | 5 | 269 | 1.6 | 1.6 | 0.00 | 0.00 | 0.00 | 60 | 1018.1 |
| 20260502034516 | 5 | 269 | 0.0 | 1.6 | 0.00 | 0.00 | 0.00 | 60 | 1018.3 |
| 20260502034015 | 5 | 269 | 0.0 | 1.6 | 0.00 | 0.00 | 0.00 | 59 | 1018.4 |
| 20260502033513 | 5 | 270 | 0.0 | 1.6 | 0.00 | 0.00 | 0.00 | 60 | 1018.4 |
| 20260502033010 | 5 | 270 | 1.6 | 1.6 | 0.00 | 0.00 | 0.00 | 58 | 1018.4 |
| 20260502032505 | 5 | 270 | 1.6 | 1.6 | 0.00 | 0.00 | 0.00 | 58 | 1018.5 |
| 20260502032003 | 5 | 270 | 0.0 | 1.6 | 0.00 | 0.00 | 0.00 | 57 | 1018.4 |
| 20260502031501 | 6 | 270 | 0.0 | 1.6 | 0.00 | 0.00 | 0.00 | 56 | 1018.2 |
| 20260502030958 | 6 | 270 | 1.6 | 1.6 | 0.00 | 0.00 | 0.00 | 54 | 1018.3 |
| 20260502030456 | 6 | 270 | 1.6 | 3.2 | 0.00 | 0.00 | 0.00 | 56 | 1018.3 |
| 20260502025954 | 6 | 283 | 0.0 | 1.6 | 0.00 | 0.00 | 0.00 | 54 | 1018.4 |
| 20260502025451 | 6 | 283 | 0.0 | 1.6 | 0.00 | 0.00 | 0.00 | 54 | 1018.2 |
| 20260502024949 | 6 | 283 | 1.6 | 1.6 | 0.00 | 0.00 | 0.00 | 51 | 1018.2 |
| 20260502024447 | 6 | 283 | 0.0 | 1.6 | 0.00 | 0.00 | 0.00 | 52 | 1018.2 |
| 20260502023945 | 6 | 283 | 0.0 | 1.6 | 0.00 | 0.00 | 0.00 | 51 | 1018.3 |